Weather History for Molokai, HI

Change the Weather History Date:

Wednesday, March 13, 2013

  Actual Average Record
Temperature  
Mean Temperature 68 °F -  
Max Temperature 75 °F 79 °F 86 °F (1980)
Min Temperature 62 °F 64 °F 52 °F (2005)
Cooling Degree Days 4    
Growing Degree Days 18 (Base 50)    
Moisture  
Dew Point 59 °F    
Average Humidity 73    
Maximum Humidity 87    
Minimum Humidity 57    
Precipitation  
Precipitation 0.00 in - - ()
Sea Level Pressure  
Sea Level Pressure 30.08 in    
Wind  
Wind Speed 7 mph (NNE)    
Max Wind Speed 16 mph    
Max Gust Speed 23 mph    
Visibility 10 miles    
Events      
Averages and records for this station are not official NWS values.
T = Trace of Precipitation, MM = Missing Value Source: NWS Daily Summary

Daily Weather History Graph

Daily Weather History Graph

Search for Another Location

Airport:

Trip Planner

Search our weather history database for the weather conditions in past years. The results will help you decide how hot, cold, wet, or windy it might be!

Date:

Astronomy

Mar. 13, 2013 Rise Set
Actual Time 6:38 AM HST 6:37 PM HST
Civil Twilight 6:16 AM HST 6:59 PM HST
Nautical Twilight 5:50 AM HST 7:25 PM HST
Astronomical Twilight 5:24 AM HST 7:51 PM HST
Moon 7:45 AM HST (3/13) 8:40 PM HST (3/13)
Length of Visible Light 12h 43m
Length of Day
11h 59m
Waxing Crescent, 5% of the Moon is Illuminated
Mar 13
Waxing Crescent
Mar 19
First Quarter
Mar 26
Full
Apr 2
Last Quarter
Apr 9
New

Hourly Weather History & Observations

Time (HST) Temp. Dew Point Humidity Pressure Visibility Wind Dir Wind Speed Gust Speed Precip Events Conditions
12:54 AM 64.0 °F 57.9 °F 80% 30.10 in 10.0 mi North 4.6 mph - N/A   Clear
1:54 AM 63.0 °F 59.0 °F 87% 30.08 in 10.0 mi North 5.8 mph - N/A   Clear
2:54 AM 64.0 °F 59.0 °F 84% 30.05 in 10.0 mi North 4.6 mph - N/A   Clear
3:54 AM 63.0 °F 57.9 °F 84% 30.04 in 10.0 mi North 4.6 mph - N/A   Clear
4:54 AM 62.1 °F 57.9 °F 86% 30.06 in 10.0 mi NNE 3.5 mph - N/A   Clear
5:54 AM 64.0 °F 57.9 °F 80% 30.06 in 10.0 mi North 6.9 mph - N/A   Clear
6:54 AM 64.0 °F 57.0 °F 78% 30.09 in 10.0 mi Calm Calm - N/A   Clear
7:54 AM 68.0 °F 59.0 °F 73% 30.11 in 10.0 mi NNE 4.6 mph - N/A   Clear
8:54 AM 71.1 °F 59.0 °F 66% 30.12 in 10.0 mi NNE 9.2 mph 17.3 mph N/A   Partly Cloudy
9:54 AM 72.0 °F 59.0 °F 64% 30.12 in 10.0 mi NE 11.5 mph 19.6 mph N/A   Clear
10:54 AM 73.0 °F 57.9 °F 59% 30.12 in 10.0 mi NNE 11.5 mph 19.6 mph N/A   Clear
11:54 AM 73.9 °F 57.9 °F 57% 30.09 in 10.0 mi NNE 13.8 mph 20.7 mph N/A   Clear
12:54 PM 75.0 °F 60.1 °F 60% 30.07 in 10.0 mi NNE 12.7 mph 21.9 mph N/A   Clear
1:54 PM 73.9 °F 60.1 °F 62% 30.05 in 10.0 mi NE 16.1 mph 23.0 mph N/A   Clear
2:54 PM 73.9 °F 59.0 °F 59% 30.04 in 10.0 mi NE 13.8 mph 20.7 mph N/A   Clear
3:54 PM 73.0 °F 60.1 °F 64% 30.03 in 10.0 mi NNE 12.7 mph 18.4 mph N/A   Clear
4:54 PM 72.0 °F 60.1 °F 66% 30.04 in 10.0 mi NNE 12.7 mph 19.6 mph N/A   Clear
5:54 PM 70.0 °F 60.1 °F 71% 30.06 in 10.0 mi NNE 8.1 mph 18.4 mph N/A   Clear
6:54 PM 68.0 °F 60.1 °F 76% 30.07 in 10.0 mi NNE 6.9 mph - N/A   Clear
7:54 PM 66.9 °F 60.1 °F 79% 30.09 in 10.0 mi NNE 6.9 mph - N/A   Clear
8:54 PM 66.9 °F 60.1 °F 79% 30.09 in 10.0 mi NNE 6.9 mph - N/A   Clear
9:54 PM 66.9 °F 60.1 °F 79% 30.10 in 10.0 mi NNE 4.6 mph - N/A   Clear
10:54 PM 66.0 °F 60.1 °F 81% 30.11 in 10.0 mi NNE 4.6 mph - N/A   Clear
11:54 PM 66.9 °F 60.1 °F 79% 30.09 in 10.0 mi NNE 4.6 mph - N/A   Clear